Погода в Киеве

Погода в Киеве : погода сейчас, прогноз погоды и архив. Всё, что Вы хотите узнать о погоде в Киеве!

Хотите узнать прогноз погоды в Киеве? Тогда Вам сюда: Погода в Киеве

Поиск расширенной информации на нашем сайте:

Другие новости

Новости СМИ2

Главная страница сайта

Новости сайта

02.10.2013

Напоминаем, что на нашем новом сайте вы можете получить высокодетализированные прогнозы погоды по пунктам России, СНГ и мира (включающие важные для авиации метеовеличины, такие как направление и скорость ветра, видимость, явления погоды, количество и форма облачности, нижняя и верхняя граница облачности), а также ознакомиться с разнообразными материалами по авиационной метеорологии и подборкой полезных ссылок на эту тему.

Сайт Метеоцентр.Азия посвящён разработке технологий оптимизации авиаметеорологического обслуживания, включая проектирование и перспективное создание нескольких автоматизированных авиаметеорологических систем:
- система выпуска высокодетальных прогностических карт явлений погоды для нижнего воздушного пространства по России и ближнему зарубежью;
- система верификации прогнозов TAF (выпускаемых синоптиками официальных АМСГ РФ и ближнего зарубежья) и AUTOTAF (выпускаемых сайтом Метеоцентр.Азия) - выявление ошибок, онлайн-сопоставление с фактической погодой METAR, автоматическое внесение коррективов в прогнозы при резком отклонении фактической погоды от прогноза, подсчёт оправдываемости прогнозов по элементам и в целом;
- система обработки, анализа и отображения авиаметеорологической информации для применения провайдерами метеорологической информации.

Рекомендуем: ремонт квартир цены

Погода в Киеве - сегодня

Время (UTC), дата Ветер
(°,м/с) 
Видим.   Явления Облачность Т
(°С)
Тd
(°С)
f(%) Тe
(°С)
Pmin
(гПа)
dP
(гПа)
Po
(мм)
O2
(г/м3)
Тmin Tmax R s Состояние
почвы
03 27.03.17 290 (З) 20000 м    10/0 средняя 
[Ac und]
+1.5 -1.6 80 -2  1014  -3.9  745  299           
06 27.03.17 310 (СЗ) 20000 м  в посл. час снег  10/4 600 м средняя 
[Sc|Ac As]
+3 -0.8 76 +1  1011.9  -2  743  296  +0.5    0.0     
09 27.03.17 350 (С) 20000 м    9/9 930 м 
[Sc]
+7.7 +0.1 59 +6  1011.4  -0.1  743  291           
12 27.03.17 330 (СЗ) 20000 м    6/6 1000 м 
[Cu hum]
+11.7 -2.4 37 +11  1011.1  743  287           
15 27.03.17 360 (С) 20000 м    ясно 
+11.8 -3.4 34 +11  1011.6  0.5  744  288           
18 27.03.17 320 (СЗ) 20000 м    ясно 
+9.4 -3.2 41 +9  1013.3  1.5  745  290    +12.3       
21 27.03.17 320 (СЗ) 20000 м    ясно 
+7 -2.5 51 +7  1013.5  745  293           
00 28.03.17 300 (СЗ) 20000 м    ясно 
+6.4 -1 59 +5  1011.9  -1.6  744  293           
03 28.03.17 300 (СЗ) 20000 м    9/0 средняя 
[Ac trans]
+8.2 +2.5 67 +7  1009  -2.7  742  290           
06 28.03.17 330 (СЗ) 20000 м    3/0 средняя 
[Ac cast]
+11 +4.6 65 +10  1008.4  -0.4  741  286  +6.2         
09 28.03.17 330 (СЗ) 20000 м    3/0 средняя 
[Ac trans]
+14.4 +2.9 46 +13  1008.4  0.2  741  283           
12 28.03.17 340 (С) 20000 м    ясно 
+15.7 -5.2 23 +15  1008.8  0.5  742  283           
15 28.03.17 350 (С) 20000 м    ясно 
+14.5 -5 26 +14  1010.6  1.7  743  285           
18 28.03.17 360 (С) 20000 м    ясно 
+10.8 -5.8 31 +10  1014.3  3.3  746  290    +16.3       
21 28.03.17 340 (С) 20000 м    ясно 
+9.1 -4.6 38 +9  1015.9  1.5  747  292           
00 29.03.17 330 (СЗ) 20000 м    ясно 
+7.2 -4.1 44 +7  1016.9  0.8  747  294           
03 29.03.17 300 (СЗ) 20000 м    ясно 
+4.5 -2.9 59 +5  1017.4  0.3  748  297           
06 29.03.17 320 (СЗ) 20000 м    3/0 средняя 
[Ac trans]
+6.7 -1.3 57 +7  1018  0.8  748  294  +3.8         
09 29.03.17 280 (З) 20000 м    6/0 верхняя 
[Ci fib]
+13.1 -1.2 37 +12  1016.5  -1  747  287           
12 29.03.17 280 (З) 20000 м    8/1 1000 м верхняя 
[Cu hum|Ci fib]
+16.7 +1.4 36 +16  1013.6  -2.6  745  283           
15 29.03.17 260 (З) 20000 м    10/3 300 м средняя 
[Cu hum|Ac und]
+17 +5.5 47 +17  1010.3  -3.2  743  281           
18 29.03.17 290 (З) 20000 м    ясно 
+15.6 +2.2 40 +15  1009.1  -1.3  742  282    +17.3       
21 29.03.17 310 (СЗ) 20000 м    3/0 средняя 
[Ac trans]
+13.4 +2.6 48 +13  1009.2  -0.1  742  285           
00 30.03.17 350 (С) 4000 м  слаб. дождь  10/10 700 м 
[Frnb|Ns]
+7.4 +4.9 84 +8  1012  2.4  744  291      0.9     
03 30.03.17 340 (С) 10 км  {дождь}  4/4 600 м 
[Sc]
+7.6 +5.6 87 +7  1012.9  0.9  744  291           
Время (UTC), дата Ветер
(°,м/с) 
Видим.   Явления Облачность Т
(°С)
Тd
(°С)
f(%) Тe
(°С)
Pmin
(гПа)
dP
(гПа)
Po
(мм)
O2
(г/м3)
Тmin Tmax R s Состояние
почвы

Для получения пояснительной информации подведите курсор к названию столбца.

ПОГОДА в Киеве - архив

Всё, что Вы хотите узнать о погоде в Киеве - удобно и подробно!

Выберите нужную дату (начиная с 1 января 2015* года) и нажмите кнопку "Найти".
Будут отображены архивные сводки погоды по пункту Киев, начиная с указанной даты.


Отображать данные в формате CSV (для использования в таблицах Excel)


Внимание! Наш архив погоды предназначен исключительно для личного некоммерческого использования в познавательных целях. Если Вам необходимы официальные справки о состоянии погоды (для производственных, юридических, коммерческих и т.п. целей), обращайтесь в органы Росгидромета.

*Примечание: данная дата относится к архиву по метеостанциям СССР (Россия, СНГ, Балтия).
Архив по метеостанциям Зарубежной Европы и Азии (кроме Китая) хранится 10 дней, по другим регионам земного шара (Китай, Африка, Америка, Австралия, Океания) - 1 день.

Киев - район местоположения метеостанции


Название, широта, долгота, высота метеостанции:
Киев (город) 50.4°ш. 30.6°д. 167 м над ур. моря [Украина]

Дополнительная информация

В oтличие oт бoльшинства пoгoдных сайтoв мы публикуем пoдрoбную метеoинфoрмацию в детальнoм прoфессиoнальнoм фoрмате.

Характеристики температуры и влажнoсти вoздуха измеряются на высoте 2 м в тени вдали oт зданий и деревьев.
Скoрoсть ветра измеряется на высoте 10 м (на урoвне рoста челoвека скoрoсть ветра ниже в 1.5-2 раза). Если метеoстанция нахoдится в гoрoде или в лесу, тo скoрoсть ветра занижена на 2-4 м/с пo сравнению с oткрытым местoм. Скoрoсть ветра над акватoриями крупных рек и oзёр, а также на вершинах хoлмoв на 2-5 м/с выше, чем в oбычных услoвиях.
Атмoсфернoе давление в разных тoчках местнoсти мoжет значительнo oтличаться oт давления на метеoстанции, в зависимoсти oт услoвий рельефа (при пoдъёме на 10 м давление пoнижается примернo на 1 мм рт.ст.).